Time,TemperatureF,DewpointF,PressureIn,WindDirection,WindDirectionDegrees,WindSpeedMPH,WindSpeedGustMPH,Humidity,HourlyPrecipIn,Conditions,Clouds,dailyrainin,SolarRadiationWatts/m^2,SoftwareType,DateUTC
2013-04-22 00:00:00,39.4,30.4,30.36,SSE,167,0.0,0.0,70,0.00,,,0.00,0,WeatherCatV1.15B25,2013-04-22 04:00:00,
2013-04-22 00:01:00,39.4,30.4,30.36,SSE,167,0.0,0.0,70,0.00,,,0.00,0,WeatherCatV1.15B25,2013-04-22 04:01:00,
2013-04-22 00:06:00,39.3,30.3,30.36,SSE,167,0.0,0.0,70,0.00,,,0.00,0,WeatherCatV1.15B25,2013-04-22 04:06:00,
2013-04-22 00:11:00,39.2,30.3,30.35,SSE,167,0.0,0.0,70,0.00,,,0.00,0,WeatherCatV1.15B25,2013-04-22 04:11:00,
2013-04-22 00:16:00,39.1,30.5,30.36,SSE,167,0.0,0.0,71,0.00,,,0.00,0,WeatherCatV1.15B25,2013-04-22 04:16:00,
2013-04-22 00:21:00,39.0,30.8,30.36,SSE,167,0.0,0.0,72,0.00,,,0.00,0,WeatherCatV1.15B25,2013-04-22 04:21:00,
2013-04-22 00:26:00,38.9,30.7,30.36,SSE,167,0.0,0.0,72,0.00,,,0.00,0,WeatherCatV1.15B25,2013-04-22 04:26:00,
2013-04-22 00:31:00,38.8,30.9,30.36,SSE,167,0.0,0.0,73,0.00,,,0.00,0,WeatherCatV1.15B25,2013-04-22 04:31:00,
2013-04-22 00:36:00,38.8,30.6,30.36,SSE,167,0.0,0.0,72,0.00,,,0.00,0,WeatherCatV1.15B25,2013-04-22 04:36:00,
2013-04-22 00:41:00,38.7,30.8,30.36,SSE,167,0.0,0.0,73,0.00,,,0.00,0,WeatherCatV1.15B25,2013-04-22 04:41:00,
2013-04-22 00:46:00,38.7,30.8,30.36,SSE,167,0.0,0.0,73,0.00,,,0.00,0,WeatherCatV1.15B25,2013-04-22 04:46:00,
2013-04-22 00:51:00,38.6,30.7,30.36,SSE,167,0.0,0.0,73,0.00,,,0.00,0,WeatherCatV1.15B25,2013-04-22 04:51:00,
2013-04-22 00:56:00,38.6,30.7,30.36,SSE,167,0.0,0.0,73,0.00,,,0.00,0,WeatherCatV1.15B25,2013-04-22 04:56:00,
2013-04-22 01:01:00,38.5,30.9,30.36,SSE,167,0.0,0.0,74,0.00,,,0.00,0,WeatherCatV1.15B25,2013-04-22 05:01:00,
2013-04-22 01:06:00,38.5,31.3,30.36,SSE,167,0.0,0.0,75,0.00,,,0.00,0,WeatherCatV1.15B25,2013-04-22 05:06:00,
2013-04-22 01:11:00,38.4,31.8,30.36,SSE,167,0.0,0.0,77,0.00,,,0.00,0,WeatherCatV1.15B25,2013-04-22 05:11:00,
2013-04-22 01:16:00,38.3,32.1,30.36,SSE,167,0.0,0.0,78,0.00,,,0.00,0,WeatherCatV1.15B25,2013-04-22 05:16:00,
2013-04-22 01:21:00,38.2,32.0,30.36,SSE,167,0.0,0.0,78,0.00,,,0.00,0,WeatherCatV1.15B25,2013-04-22 05:21:00,
2013-04-22 01:26:00,38.2,32.0,30.36,SSE,167,0.0,0.0,78,0.00,,,0.00,0,WeatherCatV1.15B25,2013-04-22 05:26:00,
2013-04-22 01:31:00,38.0,32.1,30.36,SSE,167,0.0,0.0,79,0.00,,,0.00,0,WeatherCatV1.15B25,2013-04-22 05:31:00,
2013-04-22 01:36:00,37.9,32.0,30.36,SSE,167,0.0,0.0,79,0.00,,,0.00,0,WeatherCatV1.15B25,2013-04-22 05:36:00,
2013-04-22 01:41:00,37.8,31.9,30.36,SSE,167,0.0,0.0,79,0.00,,,0.00,0,WeatherCatV1.15B25,2013-04-22 05:41:00,
2013-04-22 01:46:00,37.6,32.0,30.36,SSE,167,0.0,0.0,80,0.00,,,0.00,0,WeatherCatV1.15B25,2013-04-22 05:46:00,
2013-04-22 01:51:00,37.5,31.6,30.36,SSE,167,0.0,0.0,79,0.00,,,0.00,0,WeatherCatV1.15B25,2013-04-22 05:51:00,
2013-04-22 01:56:00,37.3,31.4,30.36,SSE,167,0.0,0.0,79,0.00,,,0.00,0,WeatherCatV1.15B25,2013-04-22 05:56:00,
2013-04-22 02:01:00,37.2,31.3,30.36,SSE,167,0.0,0.0,79,0.00,,,0.00,0,WeatherCatV1.15B25,2013-04-22 06:01:00,
2013-04-22 02:06:00,37.0,31.4,30.35,SSE,167,0.0,0.0,80,0.00,,,0.00,0,WeatherCatV1.15B25,2013-04-22 06:06:00,
2013-04-22 02:11:00,36.8,31.2,30.35,SSE,167,0.0,0.0,80,0.00,,,0.00,0,WeatherCatV1.15B25,2013-04-22 06:11:00,
2013-04-22 02:16:00,36.6,31.0,30.35,SSE,167,0.0,0.0,80,0.00,,,0.00,0,WeatherCatV1.15B25,2013-04-22 06:16:00,
2013-04-22 02:21:00,36.5,30.9,30.35,SSE,167,0.0,0.0,80,0.00,,,0.00,0,WeatherCatV1.15B25,2013-04-22 06:21:00,
2013-04-22 02:26:00,36.3,30.7,30.35,SSE,167,0.0,0.0,80,0.00,,,0.00,0,WeatherCatV1.15B25,2013-04-22 06:26:00,
2013-04-22 02:31:00,36.2,30.9,30.35,SSE,167,0.0,0.0,81,0.00,,,0.00,0,WeatherCatV1.15B25,2013-04-22 06:31:00,
2013-04-22 02:36:00,36.0,30.7,30.35,SSE,167,0.0,0.0,81,0.00,,,0.00,0,WeatherCatV1.15B25,2013-04-22 06:36:00,
2013-04-22 02:41:00,35.9,30.6,30.35,SSE,167,0.0,0.0,81,0.00,,,0.00,0,WeatherCatV1.15B25,2013-04-22 06:41:00,
2013-04-22 02:46:00,35.7,30.8,30.35,SSE,167,0.0,0.0,82,0.00,,,0.00,0,WeatherCatV1.15B25,2013-04-22 06:46:00,
2013-04-22 02:51:00,35.5,30.9,30.35,SSE,167,0.0,0.0,83,0.00,,,0.00,0,WeatherCatV1.15B25,2013-04-22 06:51:00,
2013-04-22 02:56:00,35.4,30.8,30.35,SSE,167,0.0,0.0,83,0.00,,,0.00,0,WeatherCatV1.15B25,2013-04-22 06:56:00,
2013-04-22 03:01:00,35.3,30.7,30.35,SSE,167,0.0,0.0,83,0.00,,,0.00,0,WeatherCatV1.15B25,2013-04-22 07:01:00,
2013-04-22 03:06:00,35.2,30.9,30.35,SSE,167,0.0,0.0,84,0.00,,,0.00,0,WeatherCatV1.15B25,2013-04-22 07:06:00,
2013-04-22 03:11:00,35.1,30.8,30.35,SSE,167,0.0,0.0,84,0.00,,,0.00,0,WeatherCatV1.15B25,2013-04-22 07:11:00,
2013-04-22 03:16:00,35.0,31.0,30.35,SSE,167,0.0,0.0,85,0.00,,,0.00,0,WeatherCatV1.15B25,2013-04-22 07:16:00,
2013-04-22 03:21:00,34.8,30.5,30.35,SSE,167,0.0,0.0,84,0.00,,,0.00,0,WeatherCatV1.15B25,2013-04-22 07:21:00,
2013-04-22 03:26:00,34.7,30.7,30.35,SSE,167,0.0,0.0,85,0.00,,,0.00,0,WeatherCatV1.15B25,2013-04-22 07:26:00,
2013-04-22 03:31:00,34.6,30.9,30.35,SSE,167,0.0,0.0,86,0.00,,,0.00,0,WeatherCatV1.15B25,2013-04-22 07:31:00,
2013-04-22 03:36:00,34.5,30.8,30.35,SSE,167,0.0,0.0,86,0.00,,,0.00,0,WeatherCatV1.15B25,2013-04-22 07:36:00,
2013-04-22 03:41:00,34.4,30.7,30.35,SSE,167,0.0,0.0,86,0.00,,,0.00,0,WeatherCatV1.15B25,2013-04-22 07:41:00,
2013-04-22 03:46:00,34.3,30.6,30.35,SSE,167,0.0,0.0,86,0.00,,,0.00,0,WeatherCatV1.15B25,2013-04-22 07:46:00,
2013-04-22 03:51:00,34.1,30.4,30.35,SSE,167,0.0,0.0,86,0.00,,,0.00,0,WeatherCatV1.15B25,2013-04-22 07:51:00,
2013-04-22 03:56:00,34.0,30.5,30.35,SSE,167,0.0,0.0,87,0.00,,,0.00,0,WeatherCatV1.15B25,2013-04-22 07:56:00,
2013-04-22 04:01:00,33.8,30.3,30.35,SSE,167,0.0,0.0,87,0.00,,,0.00,0,WeatherCatV1.15B25,2013-04-22 08:01:00,
2013-04-22 04:06:00,33.7,30.2,30.35,SSE,167,0.0,0.0,87,0.00,,,0.00,0,WeatherCatV1.15B25,2013-04-22 08:06:00,
2013-04-22 04:11:00,33.7,30.2,30.35,SSE,167,0.0,0.0,87,0.00,,,0.00,0,WeatherCatV1.15B25,2013-04-22 08:11:00,
2013-04-22 04:16:00,33.6,30.4,30.36,SSE,167,0.0,0.0,88,0.00,,,0.00,0,WeatherCatV1.15B25,2013-04-22 08:16:00,
2013-04-22 04:21:00,33.5,30.3,30.36,SSE,167,0.0,0.0,88,0.00,,,0.00,0,WeatherCatV1.15B25,2013-04-22 08:21:00,
2013-04-22 04:26:00,33.4,30.2,30.36,SSE,167,0.0,0.0,88,0.00,,,0.00,0,WeatherCatV1.15B25,2013-04-22 08:26:00,
2013-04-22 04:31:00,33.3,30.1,30.36,SSE,167,0.0,0.0,88,0.00,,,0.00,0,WeatherCatV1.15B25,2013-04-22 08:31:00,
2013-04-22 04:36:00,33.2,30.3,30.36,SSE,167,0.0,0.0,89,0.00,,,0.00,0,WeatherCatV1.15B25,2013-04-22 08:36:00,
2013-04-22 04:41:00,33.1,30.2,30.36,SSE,167,0.0,0.0,89,0.00,,,0.00,0,WeatherCatV1.15B25,2013-04-22 08:41:00,
2013-04-22 04:46:00,33.0,30.1,30.36,SSE,167,0.0,0.0,89,0.00,,,0.00,0,WeatherCatV1.15B25,2013-04-22 08:46:00,
2013-04-22 04:51:00,32.8,29.9,30.36,SSE,167,0.0,0.0,89,0.00,,,0.00,0,WeatherCatV1.15B25,2013-04-22 08:51:00,
2013-04-22 04:56:00,32.8,29.9,30.36,SSE,167,0.0,0.0,89,0.00,,,0.00,0,WeatherCatV1.15B25,2013-04-22 08:56:00,
2013-04-22 05:01:00,32.6,29.7,30.36,SSE,167,0.0,0.0,89,0.00,,,0.00,0,WeatherCatV1.15B25,2013-04-22 09:01:00,
2013-04-22 05:06:00,32.5,29.6,30.36,SSE,167,0.0,0.0,89,0.00,,,0.00,0,WeatherCatV1.15B25,2013-04-22 09:06:00,
2013-04-22 05:11:00,32.3,29.4,30.36,SSE,167,0.0,0.0,89,0.00,,,0.00,0,WeatherCatV1.15B25,2013-04-22 09:11:00,
2013-04-22 05:16:00,32.2,29.3,30.36,SSE,167,0.0,0.0,89,0.00,,,0.00,0,WeatherCatV1.15B25,2013-04-22 09:16:00,
2013-04-22 05:21:00,32.1,29.2,30.36,SSE,167,0.0,0.0,89,0.00,,,0.00,0,WeatherCatV1.15B25,2013-04-22 09:21:00,
2013-04-22 05:26:00,32.0,29.1,30.36,SSE,167,0.0,0.0,89,0.00,,,0.00,0,WeatherCatV1.15B25,2013-04-22 09:26:00,
2013-04-22 05:31:00,31.9,29.0,30.37,SSE,167,0.0,0.0,89,0.00,,,0.00,0,WeatherCatV1.15B25,2013-04-22 09:31:00,
2013-04-22 05:36:00,31.9,29.3,30.37,SSE,167,0.0,0.0,90,0.00,,,0.00,0,WeatherCatV1.15B25,2013-04-22 09:36:00,
2013-04-22 05:41:00,31.8,29.2,30.37,SSE,167,0.0,0.0,90,0.00,,,0.00,0,WeatherCatV1.15B25,2013-04-22 09:41:00,
2013-04-22 05:46:00,31.7,29.1,30.36,SSE,167,0.0,0.0,90,0.00,,,0.00,0,WeatherCatV1.15B25,2013-04-22 09:46:00,
2013-04-22 05:51:00,31.6,29.0,30.36,SSE,167,0.0,0.0,90,0.00,,,0.00,0,WeatherCatV1.15B25,2013-04-22 09:51:00,
2013-04-22 05:56:00,31.5,28.9,30.36,SSE,167,0.0,0.0,90,0.00,,,0.00,0,WeatherCatV1.15B25,2013-04-22 09:56:00,
2013-04-22 06:01:00,31.5,29.2,30.36,SSE,167,0.0,0.0,91,0.00,,,0.00,0,WeatherCatV1.15B25,2013-04-22 10:01:00,
2013-04-22 06:06:00,31.4,29.1,30.37,SSE,167,0.0,0.0,91,0.00,,,0.00,0,WeatherCatV1.15B25,2013-04-22 10:06:00,
2013-04-22 06:11:00,31.4,29.1,30.37,SSE,167,0.0,0.0,91,0.00,,,0.00,0,WeatherCatV1.15B25,2013-04-22 10:11:00,
2013-04-22 06:16:00,31.3,29.0,30.37,SSE,167,0.0,0.0,91,0.00,,,0.00,5,WeatherCatV1.15B25,2013-04-22 10:16:00,
2013-04-22 06:21:00,31.2,28.9,30.37,SSE,167,0.0,0.0,91,0.00,,,0.00,9,WeatherCatV1.15B25,2013-04-22 10:21:00,
2013-04-22 06:26:00,31.1,28.8,30.37,SSE,167,0.0,0.0,91,0.00,,,0.00,11,WeatherCatV1.15B25,2013-04-22 10:26:00,
2013-04-22 06:31:00,31.1,28.8,30.37,SSE,167,0.0,0.0,91,0.00,,,0.00,12,WeatherCatV1.15B25,2013-04-22 10:31:00,
2013-04-22 06:36:00,31.1,28.8,30.37,SSE,167,0.0,0.0,91,0.00,,,0.00,16,WeatherCatV1.15B25,2013-04-22 10:36:00,
2013-04-22 06:41:00,31.0,28.7,30.37,SSE,167,0.0,0.0,91,0.00,,,0.00,18,WeatherCatV1.15B25,2013-04-22 10:41:00,
2013-04-22 06:46:00,31.1,28.8,30.37,SSE,167,0.0,0.0,91,0.00,,,0.00,21,WeatherCatV1.15B25,2013-04-22 10:46:00,
2013-04-22 06:51:00,31.1,29.1,30.37,SSE,167,0.0,0.0,92,0.00,,,0.00,23,WeatherCatV1.15B25,2013-04-22 10:51:00,
2013-04-22 06:56:00,31.1,29.1,30.36,SSE,167,0.0,0.0,92,0.00,,,0.00,30,WeatherCatV1.15B25,2013-04-22 10:56:00,
2013-04-22 07:01:00,31.1,29.1,30.36,SSE,167,0.0,0.0,92,0.00,,,0.00,25,WeatherCatV1.15B25,2013-04-22 11:01:00,
2013-04-22 07:06:00,31.3,29.5,30.36,SSE,167,0.0,0.0,93,0.00,,,0.00,28,WeatherCatV1.15B25,2013-04-22 11:06:00,
2013-04-22 07:11:00,31.5,29.7,30.37,SSE,167,0.0,0.0,93,0.00,,,0.00,33,WeatherCatV1.15B25,2013-04-22 11:11:00,
2013-04-22 07:16:00,31.7,29.9,30.37,SSE,167,0.0,0.0,93,0.00,,,0.00,28,WeatherCatV1.15B25,2013-04-22 11:16:00,
2013-04-22 07:21:00,31.9,30.4,30.37,SSE,167,0.0,0.0,94,0.00,,,0.00,35,WeatherCatV1.15B25,2013-04-22 11:21:00,
2013-04-22 07:26:00,32.3,30.8,30.37,SSE,167,0.0,0.0,94,0.00,,,0.00,40,WeatherCatV1.15B25,2013-04-22 11:26:00,
2013-04-22 07:31:00,32.9,31.6,30.37,SSE,167,0.0,1.0,95,0.00,,,0.00,47,WeatherCatV1.15B25,2013-04-22 11:31:00,
2013-04-22 07:36:00,33.9,32.6,30.37,ENE,71,1.0,2.0,95,0.00,,,0.00,53,WeatherCatV1.15B25,2013-04-22 11:36:00,
2013-04-22 07:41:00,35.5,34.5,30.36,ENE,62,1.0,2.0,96,0.00,,,0.00,54,WeatherCatV1.15B25,2013-04-22 11:41:00,
2013-04-22 07:46:00,37.1,35.5,30.36,ENE,57,0.0,3.0,94,0.00,,,0.00,56,WeatherCatV1.15B25,2013-04-22 11:46:00,
2013-04-22 07:51:00,38.4,35.4,30.36,ENE,69,2.0,4.0,89,0.00,,,0.00,51,WeatherCatV1.15B25,2013-04-22 11:51:00,
2013-04-22 07:56:00,39.4,35.6,30.36,NE,53,0.0,4.0,86,0.00,,,0.00,53,WeatherCatV1.15B25,2013-04-22 11:56:00,
2013-04-22 08:01:00,40.1,35.4,30.36,ENE,74,0.0,3.0,83,0.00,,,0.00,102,WeatherCatV1.15B25,2013-04-22 12:01:00,
2013-04-22 08:06:00,40.8,35.4,30.36,NE,34,0.0,3.0,81,0.00,,,0.00,123,WeatherCatV1.15B25,2013-04-22 12:06:00,
2013-04-22 08:11:00,41.4,35.4,30.36,ENE,59,3.0,3.0,79,0.00,,,0.00,54,WeatherCatV1.15B25,2013-04-22 12:11:00,
2013-04-22 08:16:00,42.1,32.7,30.36,ESE,103,2.0,2.0,69,0.00,,,0.00,46,WeatherCatV1.15B25,2013-04-22 12:16:00,
2013-04-22 08:21:00,43.0,32.1,30.36,ESE,109,5.0,5.0,65,0.00,,,0.00,60,WeatherCatV1.15B25,2013-04-22 12:21:00,
2013-04-22 08:26:00,43.9,31.7,30.37,ESE,106,2.0,5.0,62,0.00,,,0.00,113,WeatherCatV1.15B25,2013-04-22 12:26:00,
2013-04-22 08:31:00,44.6,32.0,30.37,NNW,345,4.0,5.0,61,0.00,,,0.00,130,WeatherCatV1.15B25,2013-04-22 12:31:00,
2013-04-22 08:36:00,45.0,32.0,30.37,ESE,119,5.0,8.0,60,0.00,,,0.00,149,WeatherCatV1.15B25,2013-04-22 12:36:00,
2013-04-22 08:41:00,45.3,31.8,30.37,ESE,113,4.0,5.0,59,0.00,,,0.00,104,WeatherCatV1.15B25,2013-04-22 12:41:00,
2013-04-22 08:46:00,45.6,31.7,30.38,ESE,114,1.0,5.0,58,0.00,,,0.00,83,WeatherCatV1.15B25,2013-04-22 12:46:00,
2013-04-22 08:51:00,45.7,31.8,30.38,ENE,69,3.0,7.0,58,0.00,,,0.00,72,WeatherCatV1.15B25,2013-04-22 12:51:00,
2013-04-22 08:56:00,45.9,31.5,30.39,ESE,108,3.0,5.0,57,0.00,,,0.00,98,WeatherCatV1.15B25,2013-04-22 12:56:00,
2013-04-22 09:01:00,46.1,31.7,30.39,East,97,5.0,5.0,57,0.00,,,0.00,253,WeatherCatV1.15B25,2013-04-22 13:01:00,
2013-04-22 09:06:00,46.4,32.0,30.39,East,93,3.0,3.0,57,0.00,,,0.00,380,WeatherCatV1.15B25,2013-04-22 13:06:00,
2013-04-22 09:11:00,46.6,32.2,30.39,East,92,2.0,3.0,57,0.00,,,0.00,76,WeatherCatV1.15B25,2013-04-22 13:11:00,
2013-04-22 09:16:00,46.7,32.3,30.38,East,95,3.0,8.0,57,0.00,,,0.00,211,WeatherCatV1.15B25,2013-04-22 13:16:00,
2013-04-22 09:21:00,46.7,32.3,30.38,East,95,2.0,5.0,57,0.00,,,0.00,125,WeatherCatV1.15B25,2013-04-22 13:21:00,
2013-04-22 09:26:00,46.9,32.5,30.38,ESE,120,2.0,7.0,57,0.00,,,0.00,264,WeatherCatV1.15B25,2013-04-22 13:26:00,
2013-04-22 09:31:00,47.0,32.1,30.37,East,91,1.0,8.0,56,0.00,,,0.00,278,WeatherCatV1.15B25,2013-04-22 13:31:00,
2013-04-22 09:36:00,47.3,32.4,30.37,East,91,2.0,4.0,56,0.00,,,0.00,98,WeatherCatV1.15B25,2013-04-22 13:36:00,
2013-04-22 09:41:00,47.5,32.6,30.38,East,98,3.0,4.0,56,0.00,,,0.00,527,WeatherCatV1.15B25,2013-04-22 13:41:00,
2013-04-22 09:46:00,47.8,32.4,30.37,East,86,5.0,5.0,55,0.00,,,0.00,390,WeatherCatV1.15B25,2013-04-22 13:46:00,
2013-04-22 09:51:00,48.1,32.2,30.37,East,92,2.0,6.0,54,0.00,,,0.00,111,WeatherCatV1.15B25,2013-04-22 13:51:00,
2013-04-22 09:56:00,48.3,32.0,30.37,East,94,2.0,3.0,53,0.00,,,0.00,178,WeatherCatV1.15B25,2013-04-22 13:56:00,
2013-04-22 10:01:00,48.5,32.6,30.37,NE,40,2.0,7.0,54,0.00,,,0.00,171,WeatherCatV1.15B25,2013-04-22 14:01:00,
2013-04-22 10:06:00,48.4,31.6,30.37,ENE,78,2.0,7.0,52,0.00,,,0.00,139,WeatherCatV1.15B25,2013-04-22 14:06:00,
2013-04-22 10:11:00,48.5,32.2,30.37,East,82,3.0,4.0,53,0.00,,,0.00,128,WeatherCatV1.15B25,2013-04-22 14:11:00,
2013-04-22 10:16:00,48.6,31.8,30.37,East,90,2.0,4.0,52,0.00,,,0.00,267,WeatherCatV1.15B25,2013-04-22 14:16:00,
2013-04-22 10:21:00,48.8,32.0,30.37,ENE,61,5.0,5.0,52,0.00,,,0.00,246,WeatherCatV1.15B25,2013-04-22 14:21:00,
2013-04-22 10:26:00,49.1,32.2,30.37,East,85,3.0,8.0,52,0.00,,,0.00,118,WeatherCatV1.15B25,2013-04-22 14:26:00,
2013-04-22 10:31:00,49.1,32.2,30.37,NE,36,5.0,7.0,52,0.00,,,0.00,197,WeatherCatV1.15B25,2013-04-22 14:31:00,
2013-04-22 10:36:00,49.3,32.4,30.37,ESE,109,5.0,5.0,52,0.00,,,0.00,172,WeatherCatV1.15B25,2013-04-22 14:36:00,
2013-04-22 10:41:00,49.4,32.5,30.37,NE,35,2.0,4.0,52,0.00,,,0.00,109,WeatherCatV1.15B25,2013-04-22 14:41:00,
2013-04-22 10:46:00,49.4,32.0,30.37,East,91,5.0,7.0,51,0.00,,,0.00,301,WeatherCatV1.15B25,2013-04-22 14:46:00,
2013-04-22 10:51:00,49.5,31.6,30.37,NE,43,6.0,9.0,50,0.00,,,0.00,269,WeatherCatV1.15B25,2013-04-22 14:51:00,
2013-04-22 10:52:00,49.6,31.2,30.37,ENE,74,4.0,9.0,49,0.00,,,0.00,313,WeatherCatV1.15B25,2013-04-22 14:52:00,
2013-04-22 10:57:00,49.7,31.3,30.37,East,92,2.0,5.0,49,0.00,,,0.00,234,WeatherCatV1.15B25,2013-04-22 14:57:00,
2013-04-22 11:02:00,49.9,31.0,30.37,East,94,5.0,7.0,48,0.00,,,0.00,311,WeatherCatV1.15B25,2013-04-22 15:02:00,
2013-04-22 11:07:00,50.2,31.3,30.36,East,94,3.0,7.0,48,0.00,,,0.00,234,WeatherCatV1.15B25,2013-04-22 15:07:00,
2013-04-22 11:12:00,50.4,32.0,30.36,ENE,57,2.0,5.0,49,0.00,,,0.00,399,WeatherCatV1.15B25,2013-04-22 15:12:00,
2013-04-22 11:17:00,50.8,32.3,30.36,ESE,119,2.0,7.0,49,0.00,,,0.00,462,WeatherCatV1.15B25,2013-04-22 15:17:00,
2013-04-22 11:22:00,50.9,31.4,30.36,ESE,121,7.0,8.0,47,0.00,,,0.00,506,WeatherCatV1.15B25,2013-04-22 15:22:00,
2013-04-22 11:27:00,51.0,32.5,30.36,ESE,109,2.0,7.0,49,0.00,,,0.00,237,WeatherCatV1.15B25,2013-04-22 15:27:00,
2013-04-22 11:32:00,51.0,32.0,30.35,ESE,113,4.0,5.0,48,0.00,,,0.00,782,WeatherCatV1.15B25,2013-04-22 15:32:00,
2013-04-22 11:37:00,51.3,32.8,30.35,ESE,105,3.0,8.0,49,0.00,,,0.00,211,WeatherCatV1.15B25,2013-04-22 15:37:00,
2013-04-22 11:42:00,51.6,33.1,30.35,SE,138,1.0,6.0,49,0.00,,,0.00,223,WeatherCatV1.15B25,2013-04-22 15:42:00,
2013-04-22 11:47:00,51.7,33.2,30.36,ESE,117,4.0,5.0,49,0.00,,,0.00,209,WeatherCatV1.15B25,2013-04-22 15:47:00,
2013-04-22 11:52:00,51.2,32.2,30.36,ESE,105,3.0,4.0,48,0.00,,,0.00,221,WeatherCatV1.15B25,2013-04-22 15:52:00,
2013-04-22 11:57:00,50.8,32.8,30.36,South,179,0.0,3.0,50,0.00,,,0.00,220,WeatherCatV1.15B25,2013-04-22 15:57:00,
2013-04-22 12:02:00,50.8,33.3,30.36,ENE,78,1.0,4.0,51,0.00,,,0.00,274,WeatherCatV1.15B25,2013-04-22 16:02:00,
2013-04-22 12:07:00,50.9,33.9,30.35,SE,132,2.0,5.0,52,0.00,,,0.00,401,WeatherCatV1.15B25,2013-04-22 16:07:00,
2013-04-22 12:12:00,51.0,35.4,30.34,SE,134,4.0,5.0,55,0.00,,,0.00,519,WeatherCatV1.15B25,2013-04-22 16:12:00,
2013-04-22 12:17:00,51.3,35.7,30.35,ESE,123,3.0,6.0,55,0.00,,,0.00,352,WeatherCatV1.15B25,2013-04-22 16:17:00,
2013-04-22 12:22:00,51.5,35.9,30.34,East,86,5.0,5.0,55,0.00,,,0.00,411,WeatherCatV1.15B25,2013-04-22 16:22:00,
2013-04-22 12:27:00,51.5,35.4,30.34,ESE,115,3.0,5.0,54,0.00,,,0.00,322,WeatherCatV1.15B25,2013-04-22 16:27:00,
2013-04-22 12:32:00,51.8,35.7,30.34,ESE,107,4.0,6.0,54,0.00,,,0.00,316,WeatherCatV1.15B25,2013-04-22 16:32:00,
2013-04-22 12:37:00,52.2,36.5,30.35,ESE,110,3.0,6.0,55,0.00,,,0.00,359,WeatherCatV1.15B25,2013-04-22 16:37:00,
2013-04-22 12:42:00,52.2,35.6,30.35,SW,232,2.0,4.0,53,0.00,,,0.00,225,WeatherCatV1.15B25,2013-04-22 16:42:00,
2013-04-22 12:47:00,51.9,35.8,30.34,East,89,3.0,6.0,54,0.00,,,0.00,230,WeatherCatV1.15B25,2013-04-22 16:47:00,
2013-04-22 12:52:00,51.7,35.6,30.34,ESE,123,3.0,5.0,54,0.00,,,0.00,257,WeatherCatV1.15B25,2013-04-22 16:52:00,
2013-04-22 12:57:00,51.9,35.8,30.33,South,180,9.0,9.0,54,0.00,,,0.00,283,WeatherCatV1.15B25,2013-04-22 16:57:00,
2013-04-22 13:02:00,51.7,35.6,30.33,ESE,103,2.0,3.0,54,0.00,,,0.00,232,WeatherCatV1.15B25,2013-04-22 17:02:00,
2013-04-22 13:07:00,51.9,36.2,30.33,ESE,111,2.0,5.0,55,0.00,,,0.00,220,WeatherCatV1.15B25,2013-04-22 17:07:00,
2013-04-22 13:12:00,51.8,36.6,30.33,East,93,1.0,5.0,56,0.00,,,0.00,220,WeatherCatV1.15B25,2013-04-22 17:12:00,
2013-04-22 13:17:00,51.5,36.3,30.33,SE,138,0.0,3.0,56,0.00,,,0.00,237,WeatherCatV1.15B25,2013-04-22 17:17:00,
2013-04-22 13:22:00,51.7,37.0,30.33,ESE,104,1.0,3.0,57,0.00,,,0.00,329,WeatherCatV1.15B25,2013-04-22 17:22:00,
2013-04-22 13:27:00,52.4,36.7,30.33,East,84,3.0,5.0,55,0.00,,,0.00,967,WeatherCatV1.15B25,2013-04-22 17:27:00,
2013-04-22 13:32:00,52.5,36.8,30.33,ESE,114,2.0,6.0,55,0.00,,,0.00,967,WeatherCatV1.15B25,2013-04-22 17:32:00,
2013-04-22 13:37:00,52.4,37.2,30.32,SE,129,2.0,4.0,56,0.00,,,0.00,253,WeatherCatV1.15B25,2013-04-22 17:37:00,
2013-04-22 13:42:00,52.3,37.5,30.32,ENE,64,2.0,3.0,57,0.00,,,0.00,926,WeatherCatV1.15B25,2013-04-22 17:42:00,
2013-04-22 13:47:00,53.1,38.3,30.32,SE,132,3.0,6.0,57,0.00,,,0.00,937,WeatherCatV1.15B25,2013-04-22 17:47:00,
2013-04-22 13:52:00,53.7,37.0,30.32,East,82,3.0,8.0,53,0.00,,,0.00,921,WeatherCatV1.15B25,2013-04-22 17:52:00,
2013-04-22 13:57:00,53.6,37.4,30.31,ESE,112,2.0,7.0,54,0.00,,,0.00,951,WeatherCatV1.15B25,2013-04-22 17:57:00,
2013-04-22 14:02:00,54.0,37.7,30.31,ESE,119,1.0,6.0,54,0.00,,,0.00,967,WeatherCatV1.15B25,2013-04-22 18:02:00,
2013-04-22 14:07:00,54.4,37.6,30.31,SSE,147,2.0,5.0,53,0.00,,,0.00,320,WeatherCatV1.15B25,2013-04-22 18:07:00,
2013-04-22 14:12:00,53.3,36.6,30.31,SSE,168,3.0,8.0,53,0.00,,,0.00,497,WeatherCatV1.15B25,2013-04-22 18:12:00,
2013-04-22 14:17:00,52.6,37.4,30.31,East,98,7.0,9.0,56,0.00,,,0.00,517,WeatherCatV1.15B25,2013-04-22 18:17:00,
2013-04-22 14:22:00,51.9,37.2,30.31,South,190,7.0,9.0,57,0.00,,,0.00,353,WeatherCatV1.15B25,2013-04-22 18:22:00,
2013-04-22 14:27:00,51.6,36.9,30.31,ESE,113,4.0,8.0,57,0.00,,,0.00,339,WeatherCatV1.15B25,2013-04-22 18:27:00,
2013-04-22 14:32:00,51.9,37.6,30.31,East,89,0.0,2.0,58,0.00,,,0.00,320,WeatherCatV1.15B25,2013-04-22 18:32:00,
2013-04-22 14:37:00,52.1,37.3,30.31,ESE,121,2.0,6.0,57,0.00,,,0.00,311,WeatherCatV1.15B25,2013-04-22 18:37:00,
2013-04-22 14:42:00,51.9,36.7,30.31,ESE,118,1.0,4.0,56,0.00,,,0.00,253,WeatherCatV1.15B25,2013-04-22 18:42:00,
2013-04-22 14:47:00,51.7,37.4,30.31,ESE,116,2.0,5.0,58,0.00,,,0.00,322,WeatherCatV1.15B25,2013-04-22 18:47:00,
2013-04-22 14:52:00,51.3,36.6,30.31,SE,126,4.0,10.0,57,0.00,,,0.00,408,WeatherCatV1.15B25,2013-04-22 18:52:00,
2013-04-22 14:57:00,50.8,36.6,30.30,ESE,123,0.0,7.0,58,0.00,,,0.00,383,WeatherCatV1.15B25,2013-04-22 18:57:00,
2013-04-22 15:02:00,51.2,37.4,30.30,ESE,115,3.0,3.0,59,0.00,,,0.00,448,WeatherCatV1.15B25,2013-04-22 19:02:00,
2013-04-22 15:07:00,52.0,37.2,30.30,SE,146,2.0,6.0,57,0.00,,,0.00,338,WeatherCatV1.15B25,2013-04-22 19:07:00,
2013-04-22 15:12:00,51.5,37.2,30.30,ESE,109,3.0,5.0,58,0.00,,,0.00,366,WeatherCatV1.15B25,2013-04-22 19:12:00,
2013-04-22 15:17:00,51.1,37.3,30.30,ESE,121,3.0,7.0,59,0.00,,,0.00,313,WeatherCatV1.15B25,2013-04-22 19:17:00,
2013-04-22 15:22:00,51.2,37.4,30.30,ESE,113,2.0,5.0,59,0.00,,,0.00,267,WeatherCatV1.15B25,2013-04-22 19:22:00,
2013-04-22 15:27:00,51.1,36.8,30.29,ESE,111,5.0,7.0,58,0.00,,,0.00,330,WeatherCatV1.15B25,2013-04-22 19:27:00,
2013-04-22 15:32:00,51.0,37.6,30.29,ESE,107,3.0,7.0,60,0.00,,,0.00,308,WeatherCatV1.15B25,2013-04-22 19:32:00,
2013-04-22 15:37:00,51.0,36.7,30.29,SSE,153,2.0,7.0,58,0.00,,,0.00,269,WeatherCatV1.15B25,2013-04-22 19:37:00,
2013-04-22 15:42:00,50.9,37.1,30.29,East,101,1.0,5.0,59,0.00,,,0.00,281,WeatherCatV1.15B25,2013-04-22 19:42:00,
2013-04-22 15:47:00,50.8,37.4,30.28,East,99,1.0,5.0,60,0.00,,,0.00,262,WeatherCatV1.15B25,2013-04-22 19:47:00,
2013-04-22 15:52:00,51.4,37.6,30.28,East,99,3.0,7.0,59,0.00,,,0.00,272,WeatherCatV1.15B25,2013-04-22 19:52:00,
2013-04-22 15:57:00,51.5,37.2,30.28,East,96,3.0,3.0,58,0.00,,,0.00,230,WeatherCatV1.15B25,2013-04-22 19:57:00,
2013-04-22 16:02:00,51.4,36.7,30.28,ESE,121,1.0,5.0,57,0.00,,,0.00,234,WeatherCatV1.15B25,2013-04-22 20:02:00,
2013-04-22 16:07:00,51.0,36.3,30.28,SSE,147,4.0,4.0,57,0.00,,,0.00,578,WeatherCatV1.15B25,2013-04-22 20:07:00,
2013-04-22 16:12:00,51.2,36.5,30.28,East,83,3.0,3.0,57,0.00,,,0.00,559,WeatherCatV1.15B25,2013-04-22 20:12:00,
2013-04-22 16:17:00,51.6,36.0,30.28,ESE,118,5.0,7.0,55,0.00,,,0.00,599,WeatherCatV1.15B25,2013-04-22 20:17:00,
2013-04-22 16:22:00,52.1,36.0,30.27,ESE,108,4.0,5.0,54,0.00,,,0.00,120,WeatherCatV1.15B25,2013-04-22 20:22:00,
2013-04-22 16:27:00,51.8,35.7,30.28,East,84,3.0,6.0,54,0.00,,,0.00,476,WeatherCatV1.15B25,2013-04-22 20:27:00,
2013-04-22 16:32:00,51.7,35.6,30.27,ESE,112,3.0,5.0,54,0.00,,,0.00,316,WeatherCatV1.15B25,2013-04-22 20:32:00,
2013-04-22 16:37:00,52.0,35.4,30.27,South,173,3.0,6.0,53,0.00,,,0.00,392,WeatherCatV1.15B25,2013-04-22 20:37:00,
2013-04-22 16:42:00,52.1,35.5,30.27,East,98,2.0,4.0,53,0.00,,,0.00,462,WeatherCatV1.15B25,2013-04-22 20:42:00,
2013-04-22 16:47:00,52.6,36.0,30.27,East,87,2.0,6.0,53,0.00,,,0.00,443,WeatherCatV1.15B25,2013-04-22 20:47:00,
2013-04-22 16:52:00,52.5,34.9,30.27,East,92,1.0,3.0,51,0.00,,,0.00,334,WeatherCatV1.15B25,2013-04-22 20:52:00,
2013-04-22 16:57:00,52.5,34.9,30.26,East,97,3.0,5.0,51,0.00,,,0.00,334,WeatherCatV1.15B25,2013-04-22 20:57:00,
2013-04-22 17:02:00,52.4,34.8,30.26,ESE,115,7.0,8.0,51,0.00,,,0.00,283,WeatherCatV1.15B25,2013-04-22 21:02:00,
2013-04-22 17:07:00,52.3,34.2,30.26,ESE,114,3.0,10.0,50,0.00,,,0.00,392,WeatherCatV1.15B25,2013-04-22 21:07:00,
2013-04-22 17:12:00,52.4,34.8,30.26,ESE,105,3.0,4.0,51,0.00,,,0.00,418,WeatherCatV1.15B25,2013-04-22 21:12:00,
2013-04-22 17:17:00,52.5,34.9,30.25,ESE,112,2.0,4.0,51,0.00,,,0.00,388,WeatherCatV1.15B25,2013-04-22 21:17:00,
2013-04-22 17:22:00,52.6,33.5,30.25,ESE,106,3.0,5.0,48,0.00,,,0.00,387,WeatherCatV1.15B25,2013-04-22 21:22:00,
2013-04-22 17:27:00,52.5,33.9,30.26,ESE,120,2.0,2.0,49,0.00,,,0.00,378,WeatherCatV1.15B25,2013-04-22 21:27:00,
2013-04-22 17:32:00,52.6,32.4,30.26,ESE,120,3.0,5.0,46,0.00,,,0.00,318,WeatherCatV1.15B25,2013-04-22 21:32:00,
2013-04-22 17:37:00,52.3,32.1,30.26,East,88,2.0,9.0,46,0.00,,,0.00,311,WeatherCatV1.15B25,2013-04-22 21:37:00,
2013-04-22 17:42:00,51.9,31.8,30.26,East,92,3.0,7.0,46,0.00,,,0.00,294,WeatherCatV1.15B25,2013-04-22 21:42:00,
2013-04-22 17:47:00,51.7,32.1,30.26,SE,126,3.0,3.0,47,0.00,,,0.00,283,WeatherCatV1.15B25,2013-04-22 21:47:00,
2013-04-22 17:52:00,51.7,31.1,30.26,ESE,105,3.0,4.0,45,0.00,,,0.00,253,WeatherCatV1.15B25,2013-04-22 21:52:00,
2013-04-22 17:57:00,51.6,31.0,30.26,ESE,107,3.0,3.0,45,0.00,,,0.00,197,WeatherCatV1.15B25,2013-04-22 21:57:00,
2013-04-22 18:02:00,51.5,30.9,30.26,ESE,109,7.0,8.0,45,0.00,,,0.00,190,WeatherCatV1.15B25,2013-04-22 22:02:00,
2013-04-22 18:07:00,51.1,31.0,30.26,East,89,5.0,6.0,46,0.00,,,0.00,162,WeatherCatV1.15B25,2013-04-22 22:07:00,
2013-04-22 18:12:00,51.0,30.4,30.26,SE,128,3.0,4.0,45,0.00,,,0.00,200,WeatherCatV1.15B25,2013-04-22 22:12:00,
2013-04-22 18:17:00,51.0,30.4,30.26,ESE,121,3.0,4.0,45,0.00,,,0.00,179,WeatherCatV1.15B25,2013-04-22 22:17:00,
2013-04-22 18:22:00,50.9,30.9,30.25,ESE,111,1.0,3.0,46,0.00,,,0.00,160,WeatherCatV1.15B25,2013-04-22 22:22:00,
2013-04-22 18:27:00,50.9,31.4,30.25,SE,128,1.0,7.0,47,0.00,,,0.00,123,WeatherCatV1.15B25,2013-04-22 22:27:00,
2013-04-22 18:32:00,50.5,31.5,30.25,ESE,105,7.0,7.0,48,0.00,,,0.00,111,WeatherCatV1.15B25,2013-04-22 22:32:00,
2013-04-22 18:37:00,50.2,31.8,30.25,ESE,112,4.0,7.0,49,0.00,,,0.00,109,WeatherCatV1.15B25,2013-04-22 22:37:00,
2013-04-22 18:42:00,50.0,32.1,30.25,South,171,5.0,7.0,50,0.00,,,0.00,79,WeatherCatV1.15B25,2013-04-22 22:42:00,
2013-04-22 18:47:00,49.8,32.4,30.25,ESE,115,3.0,7.0,51,0.00,,,0.00,60,WeatherCatV1.15B25,2013-04-22 22:47:00,
2013-04-22 18:52:00,49.6,33.2,30.25,East,99,2.0,2.0,53,0.00,,,0.00,47,WeatherCatV1.15B25,2013-04-22 22:52:00,
2013-04-22 18:57:00,49.4,33.0,30.24,ENE,78,3.0,5.0,53,0.00,,,0.00,47,WeatherCatV1.15B25,2013-04-22 22:57:00,
2013-04-22 19:02:00,49.2,33.3,30.24,East,101,3.0,4.0,54,0.00,,,0.00,46,WeatherCatV1.15B25,2013-04-22 23:02:00,
2013-04-22 19:07:00,49.0,33.1,30.24,ESE,108,2.0,4.0,54,0.00,,,0.00,40,WeatherCatV1.15B25,2013-04-22 23:07:00,
2013-04-22 19:12:00,48.9,33.9,30.24,ESE,119,2.0,3.0,56,0.00,,,0.00,37,WeatherCatV1.15B25,2013-04-22 23:12:00,
2013-04-22 19:17:00,48.8,33.8,30.24,SSE,148,2.0,3.0,56,0.00,,,0.00,30,WeatherCatV1.15B25,2013-04-22 23:17:00,
2013-04-22 19:22:00,48.7,34.2,30.24,ESE,107,2.0,3.0,57,0.00,,,0.00,25,WeatherCatV1.15B25,2013-04-22 23:22:00,
2013-04-22 19:27:00,48.5,34.0,30.24,East,97,2.0,4.0,57,0.00,,,0.00,21,WeatherCatV1.15B25,2013-04-22 23:27:00,
2013-04-22 19:32:00,48.3,34.6,30.24,ESE,110,2.0,2.0,59,0.00,,,0.00,16,WeatherCatV1.15B25,2013-04-22 23:32:00,
2013-04-22 19:37:00,48.2,34.6,30.24,East,90,0.0,1.0,59,0.00,,,0.00,11,WeatherCatV1.15B25,2013-04-22 23:37:00,
2013-04-22 19:42:00,48.0,34.8,30.24,ESE,103,0.0,3.0,60,0.00,,,0.00,7,WeatherCatV1.15B25,2013-04-22 23:42:00,
2013-04-22 19:48:00,47.8,33.7,30.24,SE,126,4.0,5.0,58,0.00,,,0.00,5,WeatherCatV1.15B25,2013-04-22 23:48:00,
2013-04-22 19:53:00,47.7,33.7,30.24,ESE,107,2.0,4.0,58,0.00,,,0.00,0,WeatherCatV1.15B25,2013-04-22 23:53:00,
2013-04-22 19:58:00,47.6,33.6,30.24,SE,125,1.0,3.0,58,0.00,,,0.00,0,WeatherCatV1.15B25,2013-04-22 23:58:00,
2013-04-22 20:03:00,47.5,33.5,30.24,ESE,105,1.0,2.0,58,0.00,,,0.00,0,WeatherCatV1.15B25,2013-04-23 00:03:00,
2013-04-22 20:08:00,47.3,33.7,30.24,East,91,0.0,3.0,59,0.00,,,0.00,0,WeatherCatV1.15B25,2013-04-23 00:08:00,
2013-04-22 20:13:00,47.2,34.4,30.24,ESE,103,0.0,2.0,61,0.00,,,0.00,0,WeatherCatV1.15B25,2013-04-23 00:13:00,
2013-04-22 20:18:00,47.1,34.8,30.24,ESE,107,0.0,2.0,62,0.00,,,0.00,0,WeatherCatV1.15B25,2013-04-23 00:18:00,
2013-04-22 20:23:00,47.0,35.5,30.24,ESE,107,1.0,2.0,64,0.00,,,0.00,0,WeatherCatV1.15B25,2013-04-23 00:23:00,
2013-04-22 20:28:00,46.8,35.3,30.23,SE,126,3.0,3.0,64,0.00,,,0.00,0,WeatherCatV1.15B25,2013-04-23 00:28:00,
2013-04-22 20:33:00,46.7,35.6,30.24,ESE,118,1.0,3.0,65,0.00,,,0.00,0,WeatherCatV1.15B25,2013-04-23 00:33:00,
2013-04-22 20:38:00,46.6,35.9,30.24,SSE,149,1.0,1.0,66,0.00,,,0.00,0,WeatherCatV1.15B25,2013-04-23 00:38:00,
2013-04-22 20:43:00,46.5,36.5,30.24,ESE,105,0.0,1.0,68,0.00,,,0.00,0,WeatherCatV1.15B25,2013-04-23 00:43:00,
2013-04-22 20:48:00,46.4,36.8,30.24,ESE,119,0.0,2.0,69,0.00,,,0.00,0,WeatherCatV1.15B25,2013-04-23 00:48:00,
2013-04-22 20:53:00,46.3,37.1,30.24,ESE,119,0.0,2.0,70,0.00,,,0.00,0,WeatherCatV1.15B25,2013-04-23 00:53:00,
2013-04-22 20:58:00,46.1,37.2,30.24,East,93,1.0,3.0,71,0.00,,,0.00,0,WeatherCatV1.15B25,2013-04-23 00:58:00,
2013-04-22 21:03:00,46.0,37.5,30.24,ESE,114,0.0,3.0,72,0.00,,,0.00,0,WeatherCatV1.15B25,2013-04-23 01:03:00,
2013-04-22 21:08:00,46.0,37.5,30.24,ESE,114,0.0,2.0,72,0.00,,,0.00,0,WeatherCatV1.15B25,2013-04-23 01:08:00,
2013-04-22 21:13:00,45.9,37.7,30.24,ESE,112,0.0,2.0,73,0.00,,,0.00,0,WeatherCatV1.15B25,2013-04-23 01:13:00,
2013-04-22 21:18:00,45.8,38.0,30.24,ESE,112,0.0,1.0,74,0.00,,,0.00,0,WeatherCatV1.15B25,2013-04-23 01:18:00,
2013-04-22 21:23:00,45.7,37.9,30.24,ESE,112,0.0,1.0,74,0.00,,,0.00,0,WeatherCatV1.15B25,2013-04-23 01:23:00,
2013-04-22 21:28:00,45.6,37.8,30.24,ESE,112,0.0,0.0,74,0.00,,,0.00,0,WeatherCatV1.15B25,2013-04-23 01:28:00,
2013-04-22 21:33:00,45.5,37.7,30.24,ESE,112,0.0,0.0,74,0.00,,,0.00,0,WeatherCatV1.15B25,2013-04-23 01:33:00,
2013-04-22 21:38:00,45.5,37.7,30.24,ESE,112,0.0,0.0,74,0.00,,,0.00,0,WeatherCatV1.15B25,2013-04-23 01:38:00,
2013-04-22 21:43:00,45.5,38.0,30.24,ESE,112,0.0,0.0,75,0.00,,,0.00,0,WeatherCatV1.15B25,2013-04-23 01:43:00,
2013-04-22 21:48:00,45.4,37.9,30.24,ESE,112,0.0,0.0,75,0.00,,,0.00,0,WeatherCatV1.15B25,2013-04-23 01:48:00,
2013-04-22 21:53:00,45.3,37.8,30.24,ESE,112,0.0,0.0,75,0.00,,,0.00,0,WeatherCatV1.15B25,2013-04-23 01:53:00,
2013-04-22 21:58:00,45.2,38.1,30.24,ESE,112,0.0,0.0,76,0.00,,,0.00,0,WeatherCatV1.15B25,2013-04-23 01:58:00,
2013-04-22 22:03:00,45.1,38.0,30.24,ESE,112,0.0,0.0,76,0.00,,,0.00,0,WeatherCatV1.15B25,2013-04-23 02:03:00,
2013-04-22 22:08:00,45.2,38.4,30.24,ESE,112,0.0,0.0,77,0.00,,,0.00,0,WeatherCatV1.15B25,2013-04-23 02:08:00,
2013-04-22 22:13:00,45.2,38.4,30.24,ESE,112,0.0,0.0,77,0.00,,,0.00,0,WeatherCatV1.15B25,2013-04-23 02:13:00,
2013-04-22 22:18:00,45.2,38.4,30.24,ESE,112,0.0,0.0,77,0.00,,,0.00,0,WeatherCatV1.15B25,2013-04-23 02:18:00,
2013-04-22 22:23:00,45.3,38.2,30.23,ESE,111,0.0,0.0,76,0.00,,,0.00,0,WeatherCatV1.15B25,2013-04-23 02:23:00,
2013-04-22 22:28:00,45.3,38.2,30.24,ESE,111,0.0,0.0,76,0.00,,,0.00,0,WeatherCatV1.15B25,2013-04-23 02:28:00,
2013-04-22 22:33:00,45.4,38.3,30.23,ESE,111,0.0,0.0,76,0.00,,,0.00,0,WeatherCatV1.15B25,2013-04-23 02:33:00,
2013-04-22 22:38:00,45.4,38.3,30.24,ESE,111,0.0,0.0,76,0.00,,,0.00,0,WeatherCatV1.15B25,2013-04-23 02:38:00,
2013-04-22 22:43:00,45.4,38.3,30.23,ESE,111,0.0,0.0,76,0.00,,,0.00,0,WeatherCatV1.15B25,2013-04-23 02:43:00,
2013-04-22 22:48:00,45.4,37.9,30.23,ESE,111,0.0,0.0,75,0.00,,,0.00,0,WeatherCatV1.15B25,2013-04-23 02:48:00,
2013-04-22 22:53:00,45.5,38.0,30.23,East,88,0.0,5.0,75,0.00,,,0.00,0,WeatherCatV1.15B25,2013-04-23 02:53:00,
2013-04-22 22:58:00,45.6,36.4,30.23,East,88,0.0,1.0,70,0.00,,,0.00,0,WeatherCatV1.15B25,2013-04-23 02:58:00,
2013-04-22 23:03:00,45.8,36.6,30.23,East,88,0.0,0.0,70,0.00,,,0.00,0,WeatherCatV1.15B25,2013-04-23 03:03:00,
2013-04-22 23:08:00,46.0,36.4,30.23,East,88,0.0,1.0,69,0.00,,,0.00,0,WeatherCatV1.15B25,2013-04-23 03:08:00,
2013-04-22 23:13:00,46.1,35.8,30.23,East,88,1.0,1.0,67,0.00,,,0.00,0,WeatherCatV1.15B25,2013-04-23 03:13:00,
2013-04-22 23:18:00,46.2,35.9,30.23,East,88,0.0,1.0,67,0.00,,,0.00,0,WeatherCatV1.15B25,2013-04-23 03:18:00,
2013-04-22 23:23:00,46.3,35.6,30.23,East,88,1.0,2.0,66,0.00,,,0.00,0,WeatherCatV1.15B25,2013-04-23 03:23:00,
2013-04-22 23:28:00,46.3,35.2,30.22,ENE,67,0.0,3.0,65,0.00,,,0.00,0,WeatherCatV1.15B25,2013-04-23 03:28:00,
2013-04-22 23:33:00,46.3,35.6,30.22,ENE,67,1.0,2.0,66,0.00,,,0.00,0,WeatherCatV1.15B25,2013-04-23 03:33:00,
2013-04-22 23:38:00,46.3,35.2,30.22,ENE,67,1.0,2.0,65,0.00,,,0.00,0,WeatherCatV1.15B25,2013-04-23 03:38:00,
2013-04-22 23:43:00,46.3,35.6,30.22,ENE,67,1.0,1.0,66,0.00,,,0.00,0,WeatherCatV1.15B25,2013-04-23 03:43:00,
2013-04-22 23:48:00,46.3,35.2,30.22,ENE,67,0.0,1.0,65,0.00,,,0.00,0,WeatherCatV1.15B25,2013-04-23 03:48:00,
2013-04-22 23:53:00,46.3,35.6,30.22,ENE,67,1.0,2.0,66,0.00,,,0.00,0,WeatherCatV1.15B25,2013-04-23 03:53:00,
2013-04-22 23:58:00,46.2,35.1,30.22,NE,55,0.0,1.0,65,0.00,,,0.00,0,WeatherCatV1.15B25,2013-04-23 03:58:00,